This demonstration page uses our WeatherBlox Daily Observations layout. Learn more.

Left ArrowRight Arrow

38.20091, -84.87328

Hourly Observations for August 5, 2018

Temp ( °F °C ) Dew Point ( °F °C ) Humidity (%) Winds ( mph kmh ) Pressure ( in mb ) Visibility ( mi km ) Precip ( " mm )
12:53 am 00:53 Clear 73 22.8 70 21.1 90 90 Calm 30.15 1021 10 16 0.00 0.00
1:53 am 01:53 Clear 72 22.2 69 20.6 91 91 Calm 30.14 1021 10 16 0.00 0.00
2:53 am 02:53 Clear 70 21.1 68 20 93 93 Calm 30.14 1021 8 13 0.00 0.00
3:53 am 03:53 Clear 70 21.1 68 20 93 93 Calm 30.14 1021 10 16 0.00 0.00
4:53 am 04:53 Clear 68 20 66 18.9 93 93 Calm 30.14 1021 10 16 0.00 0.00
5:53 am 05:53 Clear 69 20.6 67 19.4 93 93 Calm 30.15 1021 10 16 0.00 0.00
6:53 am 06:53 Sunny 69 20.6 66 18.9 90 90 Calm 30.16 1022 9 14 0.00 0.00
7:53 am 07:53 Sunny 72 22.2 69 20.6 91 91 SE 3 6 30.19 1022 10 16 0.00 0.00
8:53 am 08:53 Sunny 78 25.6 70 21.1 76 76 S 6 9 30.20 1023 10 16 0.00 0.00
9:53 am 09:53 Sunny 81 27.2 72 22.2 74 74 SW 8 13 30.21 1023 10 16 0.00 0.00
10:53 am 10:53 Sunny 85 29.4 72 22.2 65 65 WSW 5 7 30.20 1023 10 16 0.00 0.00
11:53 am 11:53 Sunny 85 29.4 72 22.2 65 65 SSW 7 11 30.20 1023 10 16 0.00 0.00
12:53 pm 12:53 Sunny 88 31.1 71 21.7 57 57 SW 3 6 30.19 1022 10 16 0.00 0.00
1:53 pm 13:53 Sunny 90 32.2 70 21.1 52 52 VRB 5 7 30.17 1022 10 16 0.00 0.00
2:53 pm 14:53 Mostly Sunny 91 32.8 70 21.1 50 50 Calm 30.15 1021 10 16 0.00 0.00
3:53 pm 15:53 Sunny 90 32.2 70 21.1 52 52 Calm 30.14 1021 10 16 0.00 0.00
4:53 pm 16:53 Sunny 90 32.2 69 20.6 50 50 VRB 3 6 30.14 1021 10 16 0.00 0.00
5:53 pm 17:53 Sunny 90 32.2 69 20.6 50 50 VRB 3 6 30.11 1020 10 16 0.00 0.00
6:53 pm 18:53 Sunny 86 30 70 21.1 59 59 SW 5 7 30.11 1020 10 16 0.00 0.00
7:53 pm 19:53 Sunny 84 28.9 71 21.7 65 65 WSW 3 6 30.13 1020 10 16 0.00 0.00
8:53 pm 20:53 Clear 82 27.8 70 21.1 67 67 SSW 7 11 30.11 1020 10 16 0.00 0.00
9:53 pm 21:53 Clear 80 26.7 71 21.7 74 74 Calm 30.14 1021 10 16 0.00 0.00
10:53 pm 22:53 Clear 76 24.4 72 22.2 88 88 SW 6 9 30.14 1021 10 16 0.00 0.00
11:53 pm 23:53 Clear 74 23.3 71 21.7 91 91 SW 7 11 30.16 1021 10 16 0.00 0.00

Powered by AerisWeather